Wetterdaten: Donnerstag, 21.01.2016
Datum Zeit Temp. A. Feuchte A. Luftdruck Regen Wind Richtung Richtung Sonnenschein ET UV Solar Taupunkt Windchill Windben Empfang
21.01.2016 00:00 -4,3 C 91 % 1020,1 hPa 0,0 l/m 9,2 km/h (2 Bft) SW 218 0 min 0,000 mm 0,0 UV-I 0 W/m -5,5 C -7,4 C 14,5 km/h (3 Bft) 96,67 %
21.01.2016 00:05 -3,7 C 90 % 1020,0 hPa 0,0 l/m 11,0 km/h (2 Bft) SW 232 0 min 0,000 mm 0,0 UV-I 0 W/m -5,1 C -8,4 C 17,7 km/h (3 Bft) 97,20 %
21.01.2016 00:10 -3,1 C 89 % 1020,1 hPa 0,0 l/m 11,3 km/h (2 Bft) W-SW 242 0 min 0,000 mm 0,0 UV-I 0 W/m -4,6 C -8,0 C 20,9 km/h (4 Bft) 96,90 %
21.01.2016 00:15 -2,6 C 88 % 1020,1 hPa 0,0 l/m 13,6 km/h (3 Bft) W-SW 250 0 min 0,000 mm 0,0 UV-I 0 W/m -4,3 C -9,2 C 20,9 km/h (4 Bft) 97,25 %
21.01.2016 00:20 -2,3 C 87 % 1020,0 hPa 0,0 l/m 14,2 km/h (3 Bft) SW 214 0 min 0,000 mm 0,0 UV-I 0 W/m -4,2 C -9,2 C 27,4 km/h (4 Bft) 97,58 %
21.01.2016 00:25 -2,0 C 86 % 1020,0 hPa 0,0 l/m 18,7 km/h (3 Bft) SW 227 0 min 0,000 mm 0,0 UV-I 0 W/m -4,0 C -11,6 C 30,6 km/h (5 Bft) 97,30 %
21.01.2016 00:30 -1,9 C 85 % 1020,0 hPa 0,0 l/m 17,1 km/h (3 Bft) SW 232 0 min 0,000 mm 0,0 UV-I 0 W/m -4,1 C -10,5 C 25,7 km/h (4 Bft) 96,77 %
21.01.2016 00:35 -1,9 C 85 % 1020,1 hPa 0,0 l/m 14,1 km/h (3 Bft) S-SW 209 0 min 0,000 mm 0,0 UV-I 0 W/m -4,1 C -8,7 C 22,5 km/h (4 Bft) 98,31 %
21.01.2016 00:40 -1,8 C 85 % 1020,0 hPa 0,0 l/m 15,5 km/h (3 Bft) W-SW 238 0 min 0,000 mm 0,0 UV-I 0 W/m -4,0 C -9,5 C 24,1 km/h (4 Bft) 97,44 %
21.01.2016 00:45 -1,7 C 85 % 1020,1 hPa 0,0 l/m 14,4 km/h (3 Bft) SW 229 0 min 0,000 mm 0,0 UV-I 0 W/m -3,9 C -8,7 C 20,9 km/h (4 Bft) 100,00 %
21.01.2016 00:50 -1,6 C 85 % 1020,1 hPa 0,0 l/m 14,8 km/h (3 Bft) W-SW 238 0 min 0,000 mm 0,0 UV-I 0 W/m -3,8 C -8,8 C 27,4 km/h (4 Bft) 100,00 %
21.01.2016 00:55 -1,5 C 85 % 1020,2 hPa 0,0 l/m 15,3 km/h (3 Bft) W-SW 254 0 min 0,000 mm 0,0 UV-I 0 W/m -3,7 C -9,0 C 24,1 km/h (4 Bft) 99,12 %
21.01.2016 01:00 -1,5 C 85 % 1020,1 hPa 0,0 l/m 14,6 km/h (3 Bft) W-SW 238 0 min 0,025 mm 0,0 UV-I 0 W/m -3,7 C -8,5 C 25,7 km/h (4 Bft) 99,15 %
21.01.2016 01:05 -1,5 C 85 % 1020,2 hPa 0,0 l/m 13,7 km/h (3 Bft) SW 227 0 min 0,000 mm 0,0 UV-I 0 W/m -3,7 C -7,9 C 20,9 km/h (4 Bft) 98,37 %
21.01.2016 01:10 -1,5 C 85 % 1020,3 hPa 0,0 l/m 13,5 km/h (3 Bft) W-SW 237 0 min 0,000 mm 0,0 UV-I 0 W/m -3,7 C -7,8 C 22,5 km/h (4 Bft) 100,00 %
21.01.2016 01:15 -1,5 C 85 % 1020,3 hPa 0,0 l/m 11,8 km/h (2 Bft) W-SW 246 0 min 0,000 mm 0,0 UV-I 0 W/m -3,7 C -6,6 C 19,3 km/h (3 Bft) 98,50 %
21.01.2016 01:20 -1,5 C 85 % 1020,4 hPa 0,0 l/m 13,7 km/h (3 Bft) SW 229 0 min 0,000 mm 0,0 UV-I 0 W/m -3,7 C -7,9 C 20,9 km/h (4 Bft) 97,30 %
21.01.2016 01:25 -1,5 C 85 % 1020,4 hPa 0,0 l/m 13,4 km/h (3 Bft) W 260 0 min 0,000 mm 0,0 UV-I 0 W/m -3,7 C -7,7 C 19,3 km/h (3 Bft) 100,00 %
21.01.2016 01:30 -1,5 C 84 % 1020,4 hPa 0,0 l/m 9,6 km/h (2 Bft) W-SW 254 0 min 0,000 mm 0,0 UV-I 0 W/m -3,8 C -4,8 C 17,7 km/h (3 Bft) 98,26 %
21.01.2016 01:35 -1,6 C 84 % 1020,5 hPa 0,0 l/m 10,6 km/h (2 Bft) W-SW 258 0 min 0,000 mm 0,0 UV-I 0 W/m -3,9 C -5,7 C 19,3 km/h (3 Bft) 100,00 %
21.01.2016 01:40 -1,6 C 85 % 1020,5 hPa 0,0 l/m 10,2 km/h (2 Bft) W 263 0 min 0,000 mm 0,0 UV-I 0 W/m -3,8 C -5,4 C 16,1 km/h (3 Bft) 100,00 %
21.01.2016 01:45 -1,6 C 84 % 1020,5 hPa 0,0 l/m 11,2 km/h (2 Bft) W-SW 250 0 min 0,000 mm 0,0 UV-I 0 W/m -3,9 C -6,2 C 19,3 km/h (3 Bft) 100,00 %
21.01.2016 01:50 -1,6 C 85 % 1020,5 hPa 0,0 l/m 9,3 km/h (2 Bft) W-SW 257 0 min 0,000 mm 0,0 UV-I 0 W/m -3,8 C -4,6 C 14,5 km/h (3 Bft) 98,35 %
21.01.2016 01:55 -1,7 C 85 % 1020,6 hPa 0,0 l/m 9,7 km/h (2 Bft) W-SW 245 0 min 0,000 mm 0,0 UV-I 0 W/m -3,9 C -5,1 C 12,9 km/h (3 Bft) 100,00 %
21.01.2016 02:00 -1,7 C 85 % 1020,6 hPa 0,0 l/m 8,6 km/h (2 Bft) W 264 0 min 0,000 mm 0,0 UV-I 0 W/m -3,9 C -4,0 C 16,1 km/h (3 Bft) 95,83 %
21.01.2016 02:05 -1,7 C 85 % 1020,7 hPa 0,0 l/m 7,8 km/h (2 Bft) W-SW 251 0 min 0,000 mm 0,0 UV-I 0 W/m -3,9 C -3,2 C 17,7 km/h (3 Bft) 97,17 %
21.01.2016 02:10 -1,7 C 85 % 1020,7 hPa 0,0 l/m 9,2 km/h (2 Bft) W 261 0 min 0,000 mm 0,0 UV-I 0 W/m -3,9 C -4,6 C 16,1 km/h (3 Bft) 96,90 %
21.01.2016 02:15 -1,6 C 84 % 1020,7 hPa 0,0 l/m 9,9 km/h (2 Bft) W-SW 246 0 min 0,000 mm 0,0 UV-I 0 W/m -3,9 C -5,1 C 14,5 km/h (3 Bft) 97,52 %
21.01.2016 02:20 -1,6 C 84 % 1020,7 hPa 0,0 l/m 9,3 km/h (2 Bft) W 259 0 min 0,000 mm 0,0 UV-I 0 W/m -3,9 C -4,6 C 16,1 km/h (3 Bft) 97,17 %
21.01.2016 02:25 -1,7 C 84 % 1020,8 hPa 0,0 l/m 7,6 km/h (2 Bft) W-SW 248 0 min 0,000 mm 0,0 UV-I 0 W/m -4,0 C -3,0 C 12,9 km/h (3 Bft) 97,46 %
21.01.2016 02:30 -1,7 C 85 % 1020,9 hPa 0,0 l/m 7,5 km/h (2 Bft) W 265 0 min 0,000 mm 0,0 UV-I 0 W/m -3,9 C -2,9 C 11,3 km/h (2 Bft) 95,83 %
21.01.2016 02:35 -1,7 C 85 % 1020,9 hPa 0,0 l/m 5,5 km/h (1 Bft) W 269 0 min 0,000 mm 0,0 UV-I 0 W/m -3,9 C -1,7 C 9,7 km/h (2 Bft) 99,13 %
21.01.2016 02:40 -1,7 C 85 % 1020,9 hPa 0,0 l/m 7,4 km/h (2 Bft) W 267 0 min 0,000 mm 0,0 UV-I 0 W/m -3,9 C -2,8 C 12,9 km/h (3 Bft) 98,29 %
21.01.2016 02:45 -1,8 C 85 % 1020,9 hPa 0,0 l/m 4,9 km/h (1 Bft) W-SW 257 0 min 0,000 mm 0,0 UV-I 0 W/m -4,0 C -1,8 C 8,0 km/h (2 Bft) 99,13 %
21.01.2016 02:50 -1,8 C 85 % 1020,9 hPa 0,0 l/m 5,2 km/h (1 Bft) W 266 0 min 0,000 mm 0,0 UV-I 0 W/m -4,0 C -1,8 C 9,7 km/h (2 Bft) 100,00 %
21.01.2016 02:55 -1,9 C 85 % 1020,9 hPa 0,0 l/m 5,1 km/h (1 Bft) W 269 0 min 0,000 mm 0,0 UV-I 0 W/m -4,1 C -1,9 C 9,7 km/h (2 Bft) 100,00 %
21.01.2016 03:00 -1,9 C 85 % 1021,0 hPa 0,0 l/m 6,5 km/h (2 Bft) W 265 0 min 0,000 mm 0,0 UV-I 0 W/m -4,1 C -2,0 C 11,3 km/h (2 Bft) 100,00 %
21.01.2016 03:05 -1,9 C 85 % 1021,0 hPa 0,0 l/m 7,0 km/h (2 Bft) W 261 0 min 0,000 mm 0,0 UV-I 0 W/m -4,1 C -2,6 C 11,3 km/h (2 Bft) 99,17 %
21.01.2016 03:10 -1,9 C 84 % 1021,1 hPa 0,0 l/m 6,9 km/h (2 Bft) W 261 0 min 0,000 mm 0,0 UV-I 0 W/m -4,2 C -2,4 C 12,9 km/h (3 Bft) 100,00 %
21.01.2016 03:15 -1,9 C 84 % 1021,0 hPa 0,0 l/m 8,4 km/h (2 Bft) W-SW 242 0 min 0,000 mm 0,0 UV-I 0 W/m -4,2 C -4,0 C 14,5 km/h (3 Bft) 99,08 %
21.01.2016 03:20 -1,9 C 83 % 1021,1 hPa 0,0 l/m 8,2 km/h (2 Bft) W 260 0 min 0,000 mm 0,0 UV-I 0 W/m -4,4 C -3,8 C 16,1 km/h (3 Bft) 99,15 %
21.01.2016 03:25 -1,9 C 84 % 1021,2 hPa 0,0 l/m 8,2 km/h (2 Bft) W 263 0 min 0,000 mm 0,0 UV-I 0 W/m -4,2 C -3,8 C 16,1 km/h (3 Bft) 98,31 %
21.01.2016 03:30 -1,9 C 85 % 1021,2 hPa 0,0 l/m 10,0 km/h (2 Bft) W-SW 249 0 min 0,000 mm 0,0 UV-I 0 W/m -4,1 C -5,5 C 17,7 km/h (3 Bft) 98,31 %
21.01.2016 03:35 -1,9 C 86 % 1021,2 hPa 0,0 l/m 9,6 km/h (2 Bft) W 260 0 min 0,000 mm 0,0 UV-I 0 W/m -3,9 C -5,2 C 16,1 km/h (3 Bft) 100,00 %
21.01.2016 03:40 -2,0 C 88 % 1021,3 hPa 0,0 l/m 8,4 km/h (2 Bft) W-SW 255 0 min 0,000 mm 0,0 UV-I 0 W/m -3,7 C -4,2 C 16,1 km/h (3 Bft) 99,15 %
21.01.2016 03:45 -2,1 C 89 % 1021,3 hPa 0,0 l/m 8,9 km/h (2 Bft) W 259 0 min 0,000 mm 0,0 UV-I 0 W/m -3,7 C -4,8 C 19,3 km/h (3 Bft) 99,19 %
21.01.2016 03:50 -2,1 C 91 % 1021,4 hPa 0,0 l/m 10,0 km/h (2 Bft) W 264 0 min 0,000 mm 0,0 UV-I 0 W/m -3,4 C -5,8 C 19,3 km/h (3 Bft) 100,00 %
21.01.2016 03:55 -2,1 C 92 % 1021,4 hPa 0,0 l/m 11,9 km/h (2 Bft) W-SW 258 0 min 0,000 mm 0,0 UV-I 0 W/m -3,2 C -7,3 C 17,7 km/h (3 Bft) 100,00 %
21.01.2016 04:00 -2,1 C 93 % 1021,4 hPa 0,0 l/m 10,5 km/h (2 Bft) W-SW 238 0 min 0,000 mm 0,0 UV-I 0 W/m -3,1 C -6,2 C 16,1 km/h (3 Bft) 98,33 %
21.01.2016 04:05 -2,1 C 93 % 1021,4 hPa 0,0 l/m 11,3 km/h (2 Bft) W-SW 258 0 min 0,000 mm 0,0 UV-I 0 W/m -3,1 C -6,9 C 16,1 km/h (3 Bft) 97,80 %
21.01.2016 04:10 -2,0 C 93 % 1021,5 hPa 0,0 l/m 12,5 km/h (3 Bft) W-SW 255 0 min 0,000 mm 0,0 UV-I 0 W/m -3,0 C -7,7 C 25,7 km/h (4 Bft) 95,93 %
21.01.2016 04:15 -2,0 C 92 % 1021,5 hPa 0,0 l/m 13,2 km/h (3 Bft) W-SW 256 0 min 0,000 mm 0,0 UV-I 0 W/m -3,1 C -8,2 C 19,3 km/h (3 Bft) 97,56 %
21.01.2016 04:20 -1,9 C 92 % 1021,6 hPa 0,0 l/m 10,5 km/h (2 Bft) W 272 0 min 0,000 mm 0,0 UV-I 0 W/m -3,0 C -6,0 C 16,1 km/h (3 Bft) 96,61 %
21.01.2016 04:25 -1,9 C 92 % 1021,7 hPa 0,0 l/m 12,7 km/h (3 Bft) W-SW 244 0 min 0,000 mm 0,0 UV-I 0 W/m -3,0 C -7,7 C 22,5 km/h (4 Bft) 97,25 %
21.01.2016 04:30 -1,9 C 93 % 1021,7 hPa 0,0 l/m 12,8 km/h (3 Bft) W-SW 248 0 min 0,000 mm 0,0 UV-I 0 W/m -2,9 C -7,8 C 19,3 km/h (3 Bft) 97,44 %
21.01.2016 04:35 -1,9 C 93 % 1021,8 hPa 0,0 l/m 11,7 km/h (2 Bft) W 259 0 min 0,000 mm 0,0 UV-I 0 W/m -2,9 C -7,0 C 20,9 km/h (4 Bft) 98,26 %
21.01.2016 04:40 -1,9 C 93 % 1021,8 hPa 0,0 l/m 11,3 km/h (2 Bft) W 261 0 min 0,000 mm 0,0 UV-I 0 W/m -2,9 C -6,6 C 17,7 km/h (3 Bft) 96,90 %
21.01.2016 04:45 -2,0 C 93 % 1022,0 hPa 0,0 l/m 11,9 km/h (2 Bft) W-SW 253 0 min 0,000 mm 0,0 UV-I 0 W/m -3,0 C -7,2 C 19,3 km/h (3 Bft) 99,06 %
21.01.2016 04:50 -2,0 C 94 % 1022,0 hPa 0,0 l/m 11,4 km/h (2 Bft) W 265 0 min 0,000 mm 0,0 UV-I 0 W/m -2,8 C -6,8 C 19,3 km/h (3 Bft) 98,39 %
21.01.2016 04:55 -2,0 C 94 % 1022,1 hPa 0,0 l/m 10,8 km/h (2 Bft) W 269 0 min 0,000 mm 0,0 UV-I 0 W/m -2,8 C -6,3 C 16,1 km/h (3 Bft) 100,00 %
21.01.2016 05:00 -2,1 C 94 % 1022,1 hPa 0,0 l/m 9,4 km/h (2 Bft) W 266 0 min 0,000 mm 0,0 UV-I 0 W/m -2,9 C -5,2 C 14,5 km/h (3 Bft) 100,00 %
21.01.2016 05:05 -2,1 C 94 % 1022,2 hPa 0,0 l/m 8,0 km/h (2 Bft) W 269 0 min 0,000 mm 0,0 UV-I 0 W/m -2,9 C -3,9 C 17,7 km/h (3 Bft) 99,07 %
21.01.2016 05:10 -2,1 C 94 % 1022,2 hPa 0,0 l/m 8,6 km/h (2 Bft) W 259 0 min 0,000 mm 0,0 UV-I 0 W/m -2,9 C -4,5 C 14,5 km/h (3 Bft) 99,19 %
21.01.2016 05:15 -2,1 C 95 % 1022,3 hPa 0,0 l/m 6,2 km/h (2 Bft) W 275 0 min 0,000 mm 0,0 UV-I 0 W/m -2,8 C -2,1 C 14,5 km/h (3 Bft) 100,00 %
21.01.2016 05:20 -2,1 C 94 % 1022,3 hPa 0,0 l/m 7,6 km/h (2 Bft) W 275 0 min 0,000 mm 0,0 UV-I 0 W/m -2,9 C -3,4 C 14,5 km/h (3 Bft) 98,41 %
21.01.2016 05:25 -2,1 C 94 % 1022,4 hPa 0,0 l/m 7,5 km/h (2 Bft) SW 222 0 min 0,000 mm 0,0 UV-I 0 W/m -2,9 C -3,3 C 14,5 km/h (3 Bft) 100,00 %
21.01.2016 05:30 -2,1 C 94 % 1022,5 hPa 0,0 l/m 6,5 km/h (2 Bft) W-SW 257 0 min 0,000 mm 0,0 UV-I 0 W/m -2,9 C -2,2 C 14,5 km/h (3 Bft) 99,15 %
21.01.2016 05:35 -2,1 C 94 % 1022,6 hPa 0,0 l/m 8,0 km/h (2 Bft) W-NW 289 0 min 0,000 mm 0,0 UV-I 0 W/m -2,9 C -3,9 C 14,5 km/h (3 Bft) 100,00 %
21.01.2016 05:40 -2,2 C 94 % 1022,7 hPa 0,0 l/m 9,0 km/h (2 Bft) W-SW 239 0 min 0,000 mm 0,0 UV-I 0 W/m -3,0 C -5,0 C 16,1 km/h (3 Bft) 99,15 %
21.01.2016 05:45 -2,2 C 94 % 1022,6 hPa 0,0 l/m 7,2 km/h (2 Bft) W-SW 255 0 min 0,000 mm 0,0 UV-I 0 W/m -3,0 C -3,1 C 14,5 km/h (3 Bft) 98,29 %
21.01.2016 05:50 -2,1 C 94 % 1022,7 hPa 0,0 l/m 7,4 km/h (2 Bft) W 261 0 min 0,000 mm 0,0 UV-I 0 W/m -2,9 C -3,2 C 12,9 km/h (3 Bft) 100,00 %
21.01.2016 05:55 -2,1 C 94 % 1022,7 hPa 0,0 l/m 7,2 km/h (2 Bft) W-SW 248 0 min 0,000 mm 0,0 UV-I 0 W/m -2,9 C -3,0 C 14,5 km/h (3 Bft) 98,31 %
21.01.2016 06:00 -2,2 C 94 % 1022,7 hPa 0,0 l/m 9,3 km/h (2 Bft) W 263 0 min 0,000 mm 0,0 UV-I 0 W/m -3,0 C -5,2 C 17,7 km/h (3 Bft) 100,00 %
21.01.2016 06:05 -2,2 C 94 % 1022,8 hPa 0,0 l/m 8,6 km/h (2 Bft) W-SW 256 0 min 0,000 mm 0,0 UV-I 0 W/m -3,0 C -4,6 C 12,9 km/h (3 Bft) 99,08 %
21.01.2016 06:10 -2,2 C 94 % 1022,9 hPa 0,0 l/m 7,7 km/h (2 Bft) W 265 0 min 0,000 mm 0,0 UV-I 0 W/m -3,0 C -3,6 C 12,9 km/h (3 Bft) 97,58 %
21.01.2016 06:15 -2,2 C 94 % 1023,0 hPa 0,0 l/m 6,3 km/h (2 Bft) W 269 0 min 0,000 mm 0,0 UV-I 0 W/m -3,0 C -2,2 C 12,9 km/h (3 Bft) 96,64 %
21.01.2016 06:20 -2,1 C 94 % 1023,1 hPa 0,0 l/m 6,0 km/h (2 Bft) W-NW 288 0 min 0,000 mm 0,0 UV-I 0 W/m -2,9 C -2,1 C 11,3 km/h (2 Bft) 97,39 %
21.01.2016 06:25 -2,1 C 94 % 1023,2 hPa 0,0 l/m 6,1 km/h (2 Bft) W 273 0 min 0,000 mm 0,0 UV-I 0 W/m -2,9 C -2,1 C 14,5 km/h (3 Bft) 95,83 %
21.01.2016 06:30 -2,1 C 93 % 1023,2 hPa 0,0 l/m 8,0 km/h (2 Bft) W-NW 300 0 min 0,000 mm 0,0 UV-I 0 W/m -3,1 C -3,9 C 19,3 km/h (3 Bft) 96,61 %
21.01.2016 06:35 -1,9 C 93 % 1023,4 hPa 0,0 l/m 7,6 km/h (2 Bft) SW 232 0 min 0,000 mm 0,0 UV-I 0 W/m -2,9 C -3,2 C 19,3 km/h (3 Bft) 97,32 %
21.01.2016 06:40 -1,9 C 92 % 1023,4 hPa 0,0 l/m 8,1 km/h (2 Bft) W 262 0 min 0,000 mm 0,0 UV-I 0 W/m -3,0 C -3,7 C 16,1 km/h (3 Bft) 97,37 %
21.01.2016 06:45 -1,8 C 92 % 1023,6 hPa 0,0 l/m 7,0 km/h (2 Bft) W 270 0 min 0,000 mm 0,0 UV-I 0 W/m -2,9 C -2,5 C 16,1 km/h (3 Bft) 96,61 %
21.01.2016 06:50 -1,8 C 92 % 1023,6 hPa 0,0 l/m 4,1 km/h (1 Bft) W-NW 284 0 min 0,000 mm 0,0 UV-I 0 W/m -2,9 C -1,8 C 9,7 km/h (2 Bft) 99,11 %
21.01.2016 06:55 -1,9 C 92 % 1023,8 hPa 0,0 l/m 3,4 km/h (1 Bft) W-NW 286 0 min 0,000 mm 0,0 UV-I 0 W/m -3,0 C -1,9 C 11,3 km/h (2 Bft) 99,19 %
21.01.2016 07:00 -1,9 C 92 % 1023,8 hPa 0,0 l/m 2,8 km/h (1 Bft) W-NW 291 0 min 0,000 mm 0,0 UV-I 0 W/m -3,0 C -1,9 C 6,4 km/h (2 Bft) 100,00 %
21.01.2016 07:05 -1,9 C 92 % 1023,8 hPa 0,0 l/m 3,7 km/h (1 Bft) W-NW 286 0 min 0,000 mm 0,0 UV-I 0 W/m -3,0 C -1,9 C 4,8 km/h (1 Bft) 100,00 %
21.01.2016 07:10 -1,9 C 92 % 1023,8 hPa 0,0 l/m 3,2 km/h (1 Bft) W 281 0 min 0,000 mm 0,0 UV-I 0 W/m -3,0 C -1,9 C 9,7 km/h (2 Bft) 100,00 %
21.01.2016 07:15 -1,9 C 92 % 1023,8 hPa 0,0 l/m 3,4 km/h (1 Bft) W-SW 250 0 min 0,000 mm 0,0 UV-I 0 W/m -3,0 C -1,9 C 6,4 km/h (2 Bft) 98,31 %
21.01.2016 07:20 -1,9 C 92 % 1023,9 hPa 0,0 l/m 3,8 km/h (1 Bft) W 267 0 min 0,000 mm 0,0 UV-I 0 W/m -3,0 C -1,9 C 6,4 km/h (2 Bft) 99,07 %
21.01.2016 07:25 -2,0 C 92 % 1024,0 hPa 0,0 l/m 2,0 km/h (1 Bft) W-NW 286 0 min 0,000 mm 0,0 UV-I 0 W/m -3,1 C -2,0 C 4,8 km/h (1 Bft) 99,17 %
21.01.2016 07:30 -2,0 C 92 % 1024,0 hPa 0,0 l/m 1,1 km/h (1 Bft) W 273 0 min 0,000 mm 0,0 UV-I 0 W/m -3,1 C -2,0 C 4,8 km/h (1 Bft) 100,00 %
21.01.2016 07:35 -2,0 C 92 % 1024,1 hPa 0,0 l/m 2,7 km/h (1 Bft) W 279 0 min 0,000 mm 0,0 UV-I 0 W/m -3,1 C -2,0 C 11,3 km/h (2 Bft) 97,56 %
21.01.2016 07:40 -2,1 C 93 % 1024,3 hPa 0,0 l/m 1,6 km/h (1 Bft) W-NW 282 0 min 0,000 mm 0,0 UV-I 0 W/m -3,1 C -2,1 C 4,8 km/h (1 Bft) 100,00 %
21.01.2016 07:45 -2,0 C 92 % 1024,3 hPa 0,0 l/m 1,7 km/h (1 Bft) W-NW 299 0 min 0,000 mm 0,0 UV-I 0 W/m -3,1 C -2,0 C 4,8 km/h (1 Bft) 100,00 %
21.01.2016 07:50 -2,1 C 92 % 1024,4 hPa 0,0 l/m 1,5 km/h (1 Bft) W-NW 294 0 min 0,000 mm 0,0 UV-I 0 W/m -3,2 C -2,1 C 6,4 km/h (2 Bft) 100,00 %
21.01.2016 07:55 -2,1 C 92 % 1024,6 hPa 0,0 l/m 0,6 km/h (0 Bft) W-NW 294 0 min 0,000 mm 0,0 UV-I 0 W/m -3,2 C -2,1 C 3,2 km/h (1 Bft) 99,19 %
21.01.2016 08:00 -2,1 C 93 % 1024,7 hPa 0,0 l/m 0,1 km/h (0 Bft) W-NW 294 0 min 0,000 mm 0,0 UV-I 2 W/m -3,1 C -2,1 C 1,6 km/h (1 Bft) 100,00 %
21.01.2016 08:05 -2,1 C 93 % 1024,7 hPa 0,0 l/m 0,7 km/h (0 Bft) NW 304 0 min 0,000 mm 0,0 UV-I 5 W/m -3,1 C -2,1 C 3,2 km/h (1 Bft) 100,00 %
21.01.2016 08:10 -2,1 C 93 % 1024,8 hPa 0,0 l/m 0,9 km/h (0 Bft) W-NW 301 0 min 0,000 mm 0,0 UV-I 7 W/m -3,1 C -2,1 C 4,8 km/h (1 Bft) 99,13 %
21.01.2016 08:15 -2,1 C 92 % 1024,9 hPa 0,0 l/m 0,7 km/h (0 Bft) W-NW 303 0 min 0,000 mm 0,0 UV-I 8 W/m -3,2 C -2,1 C 3,2 km/h (1 Bft) 98,20 %
21.01.2016 08:20 -2,2 C 93 % 1025,0 hPa 0,0 l/m 0,0 km/h (0 Bft) NW 304 0 min 0,000 mm 0,0 UV-I 10 W/m -3,2 C -2,2 C 1,6 km/h (1 Bft) 96,92 %
21.01.2016 08:25 -2,2 C 93 % 1025,1 hPa 0,0 l/m 0,5 km/h (0 Bft) NW 304 0 min 0,000 mm 0,0 UV-I 12 W/m -3,2 C -2,2 C 3,2 km/h (1 Bft) 95,61 %
21.01.2016 08:30 -2,2 C 93 % 1025,2 hPa 0,0 l/m 0,0 km/h (0 Bft) NW 304 0 min 0,000 mm 0,0 UV-I 13 W/m -3,2 C -2,2 C 1,6 km/h (1 Bft) 98,17 %
21.01.2016 08:35 -2,3 C 94 % 1025,2 hPa 0,0 l/m 1,2 km/h (1 Bft) W-NW 303 0 min 0,000 mm 0,0 UV-I 15 W/m -3,1 C -2,3 C 3,2 km/h (1 Bft) 95,87 %
21.01.2016 08:40 -2,3 C 94 % 1025,2 hPa 0,0 l/m 1,9 km/h (1 Bft) W-NW 295 0 min 0,000 mm 0,0 UV-I 18 W/m -3,1 C -2,3 C 4,8 km/h (1 Bft) 96,75 %
21.01.2016 08:45 -2,2 C 94 % 1025,4 hPa 0,0 l/m 1,0 km/h (0 Bft) W-NW 295 0 min 0,000 mm 0,0 UV-I 17 W/m -3,0 C -2,2 C 3,2 km/h (1 Bft) 96,43 %
21.01.2016 08:50 -2,2 C 94 % 1025,4 hPa 0,0 l/m 0,6 km/h (0 Bft) W-NW 298 0 min 0,000 mm 0,0 UV-I 15 W/m -3,0 C -2,2 C 3,2 km/h (1 Bft) 97,56 %
21.01.2016 08:55 -2,3 C 95 % 1025,4 hPa 0,0 l/m 0,7 km/h (0 Bft) W-NW 298 0 min 0,000 mm 0,0 UV-I 20 W/m -3,0 C -2,3 C 1,6 km/h (1 Bft) 99,11 %
21.01.2016 09:00 -2,3 C 94 % 1025,5 hPa 0,0 l/m 1,4 km/h (1 Bft) NW 323 0 min 0,000 mm 0,0 UV-I 21 W/m -3,1 C -2,3 C 4,8 km/h (1 Bft) 99,13 %
21.01.2016 09:05 -2,2 C 95 % 1025,5 hPa 0,0 l/m 1,0 km/h (0 Bft) NW 314 0 min 0,000 mm 0,0 UV-I 20 W/m -2,9 C -2,2 C 4,8 km/h (1 Bft) 99,19 %
21.01.2016 09:10 -2,2 C 95 % 1025,6 hPa 0,0 l/m 0,8 km/h (0 Bft) NW 315 0 min 0,000 mm 0,0 UV-I 24 W/m -2,9 C -2,2 C 3,2 km/h (1 Bft) 99,13 %
21.01.2016 09:15 -2,2 C 95 % 1025,7 hPa 0,0 l/m 0,2 km/h (0 Bft) NW 315 0 min 0,000 mm 0,0 UV-I 20 W/m -2,9 C -2,2 C 1,6 km/h (1 Bft) 100,00 %
21.01.2016 09:20 -2,2 C 95 % 1025,7 hPa 0,0 l/m 1,3 km/h (1 Bft) W-NW 297 0 min 0,000 mm 0,0 UV-I 24 W/m -2,9 C -2,2 C 3,2 km/h (1 Bft) 98,41 %
21.01.2016 09:25 -2,2 C 94 % 1025,8 hPa 0,0 l/m 1,0 km/h (0 Bft) W-NW 297 0 min 0,000 mm 0,0 UV-I 27 W/m -3,0 C -2,2 C 3,2 km/h (1 Bft) 99,11 %
21.01.2016 09:30 -2,2 C 94 % 1025,9 hPa 0,0 l/m 1,0 km/h (0 Bft) W-NW 297 0 min 0,000 mm 0,0 UV-I 29 W/m -3,0 C -2,2 C 3,2 km/h (1 Bft) 98,26 %
21.01.2016 09:35 -2,2 C 94 % 1026,0 hPa 0,0 l/m 1,5 km/h (1 Bft) W-NW 297 0 min 0,000 mm 0,0 UV-I 47 W/m -3,0 C -2,2 C 3,2 km/h (1 Bft) 100,00 %
21.01.2016 09:40 -2,1 C 94 % 1026,0 hPa 0,0 l/m 3,6 km/h (1 Bft) W 274 0 min 0,000 mm 0,0 UV-I 52 W/m -2,9 C -2,1 C 6,4 km/h (2 Bft) 100,00 %
21.01.2016 09:45 -2,1 C 93 % 1026,1 hPa 0,0 l/m 3,1 km/h (1 Bft) W 265 0 min 0,000 mm 0,0 UV-I 68 W/m -3,1 C -2,1 C 6,4 km/h (2 Bft) 100,00 %
21.01.2016 09:50 -2,0 C 93 % 1026,2 hPa 0,0 l/m 1,5 km/h (1 Bft) W-NW 292 0 min 0,000 mm 0,0 UV-I 58 W/m -3,0 C -2,0 C 4,8 km/h (1 Bft) 100,00 %
21.01.2016 09:55 -2,0 C 93 % 1026,3 hPa 0,0 l/m 1,9 km/h (1 Bft) W 278 0 min 0,000 mm 0,0 UV-I 46 W/m -3,0 C -2,0 C 4,8 km/h (1 Bft) 99,15 %
21.01.2016 10:00 -1,9 C 93 % 1026,3 hPa 0,0 l/m 1,0 km/h (0 Bft) W 278 0 min 0,000 mm 0,0 UV-I 49 W/m -2,9 C -1,9 C 3,2 km/h (1 Bft) 99,15 %
21.01.2016 10:05 -2,0 C 92 % 1026,4 hPa 0,0 l/m 3,6 km/h (1 Bft) W-NW 286 0 min 0,000 mm 0,0 UV-I 43 W/m -3,1 C -2,0 C 6,4 km/h (2 Bft) 100,00 %
21.01.2016 10:10 -2,1 C 93 % 1026,4 hPa 0,0 l/m 2,2 km/h (1 Bft) W-NW 299 0 min 0,000 mm 0,0 UV-I 39 W/m -3,1 C -2,1 C 6,4 km/h (2 Bft) 99,19 %
21.01.2016 10:15 -2,1 C 92 % 1026,6 hPa 0,0 l/m 1,0 km/h (0 Bft) W-NW 299 0 min 0,000 mm 0,0 UV-I 33 W/m -3,2 C -2,1 C 3,2 km/h (1 Bft) 99,13 %
21.01.2016 10:20 -2,1 C 93 % 1026,7 hPa 0,0 l/m 2,3 km/h (1 Bft) W-NW 296 0 min 0,000 mm 0,0 UV-I 33 W/m -3,1 C -2,1 C 6,4 km/h (2 Bft) 97,46 %
21.01.2016 10:25 -2,1 C 93 % 1026,8 hPa 0,0 l/m 1,2 km/h (1 Bft) W-NW 293 0 min 0,000 mm 0,0 UV-I 45 W/m -3,1 C -2,1 C 6,4 km/h (2 Bft) 97,30 %
21.01.2016 10:30 -2,1 C 92 % 1026,8 hPa 0,0 l/m 2,5 km/h (1 Bft) W-NW 289 0 min 0,000 mm 0,0 UV-I 49 W/m -3,2 C -2,1 C 11,3 km/h (2 Bft) 98,26 %
21.01.2016 10:35 -2,2 C 92 % 1026,9 hPa 0,0 l/m 2,3 km/h (1 Bft) W-NW 292 0 min 0,000 mm 0,0 UV-I 54 W/m -3,3 C -2,2 C 4,8 km/h (1 Bft) 97,52 %
21.01.2016 10:40 -2,2 C 92 % 1027,0 hPa 0,0 l/m 1,3 km/h (1 Bft) NW 312 0 min 0,000 mm 0,0 UV-I 85 W/m -3,3 C -2,2 C 4,8 km/h (1 Bft) 96,67 %
21.01.2016 10:45 -1,9 C 92 % 1027,0 hPa 0,0 l/m 1,5 km/h (1 Bft) W-NW 297 0 min 0,000 mm 0,0 UV-I 113 W/m -3,0 C -1,9 C 4,8 km/h (1 Bft) 96,43 %
21.01.2016 10:50 -1,6 C 91 % 1027,1 hPa 0,0 l/m 1,8 km/h (1 Bft) NW 316 5 min 0,000 mm 0,0 UV-I 200 W/m -2,9 C -1,6 C 4,8 km/h (1 Bft) 99,13 %
21.01.2016 10:55 -1,5 C 90 % 1027,1 hPa 0,0 l/m 3,2 km/h (1 Bft) W-NW 296 5 min 0,000 mm 0,0 UV-I 212 W/m -2,9 C -1,5 C 6,4 km/h (2 Bft) 100,00 %
21.01.2016 11:00 -1,7 C 90 % 1027,1 hPa 0,0 l/m 2,4 km/h (1 Bft) NW 311 0 min 0,026 mm 0,0 UV-I 156 W/m -3,1 C -1,7 C 6,4 km/h (2 Bft) 98,31 %
21.01.2016 11:05 -1,6 C 90 % 1027,1 hPa 0,0 l/m 2,1 km/h (1 Bft) N-NW 333 5 min 0,000 mm 0,5 UV-I 222 W/m -3,0 C -1,6 C 8,0 km/h (2 Bft) 100,00 %
21.01.2016 11:10 -1,4 C 90 % 1027,2 hPa 0,0 l/m 3,3 km/h (1 Bft) NW 322 5 min 0,000 mm 0,5 UV-I 201 W/m -2,8 C -1,4 C 6,4 km/h (2 Bft) 97,39 %
21.01.2016 11:15 -1,3 C 90 % 1027,3 hPa 0,0 l/m 2,1 km/h (1 Bft) W 267 0 min 0,000 mm 0,5 UV-I 177 W/m -2,7 C -1,3 C 6,4 km/h (2 Bft) 100,00 %
21.01.2016 11:20 -1,3 C 90 % 1027,2 hPa 0,0 l/m 2,0 km/h (1 Bft) N-NW 329 0 min 0,000 mm 0,2 UV-I 156 W/m -2,7 C -1,3 C 4,8 km/h (1 Bft) 99,15 %
21.01.2016 11:25 -1,3 C 90 % 1027,2 hPa 0,0 l/m 2,5 km/h (1 Bft) W-NW 299 0 min 0,000 mm 0,0 UV-I 148 W/m -2,7 C -1,3 C 4,8 km/h (1 Bft) 99,17 %
21.01.2016 11:30 -1,3 C 89 % 1027,2 hPa 0,0 l/m 1,6 km/h (1 Bft) W 265 0 min 0,000 mm 0,0 UV-I 136 W/m -2,9 C -1,3 C 6,4 km/h (2 Bft) 100,00 %
21.01.2016 11:35 -1,3 C 90 % 1027,2 hPa 0,0 l/m 3,0 km/h (1 Bft) NW 304 0 min 0,000 mm 0,4 UV-I 156 W/m -2,7 C -1,3 C 8,0 km/h (2 Bft) 99,12 %
21.01.2016 11:40 -1,3 C 88 % 1027,4 hPa 0,0 l/m 3,5 km/h (1 Bft) W 274 0 min 0,000 mm 0,5 UV-I 173 W/m -3,0 C -1,3 C 11,3 km/h (2 Bft) 99,13 %
21.01.2016 11:45 -1,3 C 88 % 1027,3 hPa 0,0 l/m 5,3 km/h (1 Bft) W 271 0 min 0,000 mm 0,6 UV-I 186 W/m -3,0 C -1,3 C 11,3 km/h (2 Bft) 99,21 %
21.01.2016 11:50 -1,3 C 88 % 1027,3 hPa 0,0 l/m 6,8 km/h (2 Bft) W-SW 252 0 min 0,000 mm 0,6 UV-I 203 W/m -3,0 C -1,7 C 14,5 km/h (3 Bft) 99,13 %
21.01.2016 11:55 -1,2 C 88 % 1027,3 hPa 0,0 l/m 5,5 km/h (1 Bft) W 264 5 min 0,000 mm 0,7 UV-I 239 W/m -2,9 C -1,2 C 11,3 km/h (2 Bft) 99,17 %
21.01.2016 12:00 -1,1 C 87 % 1027,3 hPa 0,0 l/m 3,1 km/h (1 Bft) W 279 5 min 0,051 mm 0,7 UV-I 240 W/m -3,0 C -1,1 C 6,4 km/h (2 Bft) 99,15 %
21.01.2016 12:05 -1,1 C 88 % 1027,4 hPa 0,2 l/m 1,4 km/h (1 Bft) N-NW 341 0 min 0,000 mm 0,7 UV-I 199 W/m -2,8 C -1,1 C 4,8 km/h (1 Bft) 96,43 %
21.01.2016 12:10 -1,3 C 87 % 1027,4 hPa 0,0 l/m 2,1 km/h (1 Bft) W-NW 303 0 min 0,000 mm 0,6 UV-I 156 W/m -3,2 C -1,3 C 6,4 km/h (2 Bft) 97,50 %
21.01.2016 12:15 -1,4 C 88 % 1027,3 hPa 0,0 l/m 1,0 km/h (0 Bft) W-NW 296 0 min 0,000 mm 0,6 UV-I 137 W/m -3,1 C -1,4 C 4,8 km/h (1 Bft) 96,33 %
21.01.2016 12:20 -1,5 C 88 % 1027,4 hPa 0,0 l/m 1,0 km/h (0 Bft) W-NW 296 0 min 0,000 mm 0,7 UV-I 150 W/m -3,2 C -1,5 C 3,2 km/h (1 Bft) 96,85 %
21.01.2016 12:25 -1,6 C 88 % 1027,3 hPa 0,0 l/m 2,1 km/h (1 Bft) W 268 0 min 0,000 mm 0,6 UV-I 144 W/m -3,3 C -1,6 C 4,8 km/h (1 Bft) 98,15 %
21.01.2016 12:30 -1,6 C 87 % 1027,4 hPa 0,2 l/m 2,4 km/h (1 Bft) W-NW 288 0 min 0,000 mm 0,6 UV-I 132 W/m -3,5 C -1,6 C 6,4 km/h (2 Bft) 98,31 %
21.01.2016 12:35 -1,8 C 88 % 1027,4 hPa 0,0 l/m 0,8 km/h (0 Bft) NW 306 0 min 0,000 mm 0,6 UV-I 126 W/m -3,5 C -1,8 C 4,8 km/h (1 Bft) 99,19 %
21.01.2016 12:40 -1,8 C 88 % 1027,4 hPa 0,0 l/m 0,8 km/h (0 Bft) SW 232 0 min 0,000 mm 0,7 UV-I 135 W/m -3,5 C -1,8 C 4,8 km/h (1 Bft) 99,07 %
21.01.2016 12:45 -1,8 C 87 % 1027,4 hPa 0,0 l/m 1,7 km/h (1 Bft) W 278 0 min 0,000 mm 0,7 UV-I 140 W/m -3,7 C -1,8 C 9,7 km/h (2 Bft) 99,13 %
21.01.2016 12:50 -2,0 C 88 % 1027,4 hPa 0,0 l/m 1,9 km/h (1 Bft) NW 306 0 min 0,000 mm 0,7 UV-I 156 W/m -3,7 C -2,0 C 4,8 km/h (1 Bft) 99,17 %
21.01.2016 12:55 -1,9 C 87 % 1027,5 hPa 0,0 l/m 1,9 km/h (1 Bft) NW 326 0 min 0,000 mm 0,7 UV-I 147 W/m -3,8 C -1,9 C 6,4 km/h (2 Bft) 99,12 %
21.01.2016 13:00 -2,0 C 88 % 1027,5 hPa 0,0 l/m 0,7 km/h (0 Bft) NW 326 0 min 0,000 mm 0,7 UV-I 157 W/m -3,7 C -2,0 C 3,2 km/h (1 Bft) 100,00 %
21.01.2016 13:10 -1,7 C 87 % 1027,4 hPa 0,0 l/m 6,3 km/h (2 Bft) W-SW 247 0 min 0,050 mm 0,6 UV-I 180 W/m -3,6 C -1,7 C 9,7 km/h (2 Bft) 98,85 %
21.01.2016 13:15 -1,5 C 87 % 1027,5 hPa 0,2 l/m 4,9 km/h (1 Bft) W-NW 284 0 min 0,000 mm 0,6 UV-I 179 W/m -3,4 C -1,5 C 9,7 km/h (2 Bft) 99,13 %
21.01.2016 13:20 -1,4 C 86 % 1027,5 hPa 0,0 l/m 3,7 km/h (1 Bft) W-SW 243 0 min 0,000 mm 0,6 UV-I 193 W/m -3,4 C -1,4 C 9,7 km/h (2 Bft) 98,37 %
21.01.2016 13:25 -1,3 C 86 % 1027,4 hPa 0,0 l/m 5,0 km/h (1 Bft) W-SW 250 0 min 0,000 mm 0,6 UV-I 178 W/m -3,3 C -1,3 C 12,9 km/h (3 Bft) 99,11 %
21.01.2016 13:30 -1,3 C 86 % 1027,4 hPa 0,0 l/m 2,9 km/h (1 Bft) W 272 0 min 0,000 mm 0,6 UV-I 144 W/m -3,3 C -1,3 C 6,4 km/h (2 Bft) 98,31 %
21.01.2016 13:35 -1,4 C 86 % 1027,5 hPa 0,0 l/m 4,1 km/h (1 Bft) W-SW 254 0 min 0,000 mm 0,6 UV-I 131 W/m -3,4 C -1,4 C 11,3 km/h (2 Bft) 99,15 %
21.01.2016 13:40 -1,4 C 86 % 1027,5 hPa 0,0 l/m 4,5 km/h (1 Bft) W-SW 253 0 min 0,000 mm 0,5 UV-I 126 W/m -3,4 C -1,4 C 11,3 km/h (2 Bft) 97,46 %
21.01.2016 13:45 -1,5 C 86 % 1027,5 hPa 0,0 l/m 5,7 km/h (1 Bft) W 261 0 min 0,000 mm 0,5 UV-I 115 W/m -3,5 C -1,5 C 9,7 km/h (2 Bft) 96,49 %
21.01.2016 13:50 -1,7 C 86 % 1027,6 hPa 0,0 l/m 3,1 km/h (1 Bft) W-NW 282 0 min 0,000 mm 0,5 UV-I 105 W/m -3,7 C -1,7 C 6,4 km/h (2 Bft) 97,46 %
21.01.2016 13:55 -1,7 C 86 % 1027,6 hPa 0,0 l/m 3,4 km/h (1 Bft) W 279 0 min 0,000 mm 0,5 UV-I 97 W/m -3,7 C -1,7 C 6,4 km/h (2 Bft) 96,69 %
21.01.2016 14:00 -1,7 C 86 % 1027,7 hPa 0,0 l/m 3,5 km/h (1 Bft) W 278 0 min 0,051 mm 0,5 UV-I 103 W/m -3,7 C -1,7 C 6,4 km/h (2 Bft) 96,58 %
21.01.2016 14:05 -1,7 C 86 % 1027,7 hPa 0,0 l/m 2,2 km/h (1 Bft) W 278 0 min 0,000 mm 0,5 UV-I 124 W/m -3,7 C -1,7 C 4,8 km/h (1 Bft) 97,52 %
21.01.2016 14:10 -1,6 C 86 % 1027,7 hPa 0,0 l/m 1,6 km/h (1 Bft) W 278 0 min 0,000 mm 0,4 UV-I 116 W/m -3,6 C -1,6 C 3,2 km/h (1 Bft) 99,06 %
21.01.2016 14:15 -1,7 C 86 % 1027,7 hPa 0,0 l/m 0,5 km/h (0 Bft) W 278 0 min 0,000 mm 0,0 UV-I 113 W/m -3,7 C -1,7 C 1,6 km/h (1 Bft) 99,17 %
21.01.2016 14:20 -1,6 C 86 % 1027,7 hPa 0,0 l/m 0,8 km/h (0 Bft) W 278 0 min 0,000 mm 0,0 UV-I 125 W/m -3,6 C -1,6 C 3,2 km/h (1 Bft) 100,00 %
21.01.2016 14:25 -1,7 C 85 % 1027,7 hPa 0,0 l/m 0,6 km/h (0 Bft) W 278 0 min 0,000 mm 0,0 UV-I 144 W/m -3,9 C -1,7 C 1,6 km/h (1 Bft) 99,08 %
21.01.2016 14:30 -1,8 C 86 % 1027,8 hPa 0,0 l/m 1,5 km/h (1 Bft) W 274 0 min 0,000 mm 0,0 UV-I 144 W/m -3,8 C -1,8 C 4,8 km/h (1 Bft) 99,19 %
21.01.2016 14:35 -1,6 C 86 % 1027,8 hPa 0,0 l/m 3,9 km/h (1 Bft) S 188 5 min 0,000 mm 0,0 UV-I 149 W/m -3,6 C -1,6 C 6,4 km/h (2 Bft) 100,00 %
21.01.2016 14:40 -1,4 C 85 % 1027,8 hPa 0,0 l/m 3,6 km/h (1 Bft) S-SW 213 5 min 0,000 mm 0,0 UV-I 169 W/m -3,6 C -1,4 C 6,4 km/h (2 Bft) 100,00 %
21.01.2016 14:45 -1,3 C 85 % 1027,9 hPa 0,0 l/m 4,0 km/h (1 Bft) S-SW 205 5 min 0,000 mm 0,0 UV-I 152 W/m -3,5 C -1,3 C 6,4 km/h (2 Bft) 98,31 %
21.01.2016 14:50 -1,3 C 85 % 1027,9 hPa 0,0 l/m 5,1 km/h (1 Bft) SW 229 5 min 0,000 mm 0,0 UV-I 204 W/m -3,5 C -1,3 C 8,0 km/h (2 Bft) 100,00 %
21.01.2016 14:55 -1,3 C 85 % 1027,9 hPa 0,0 l/m 5,2 km/h (1 Bft) SW 234 5 min 0,000 mm 0,0 UV-I 177 W/m -3,5 C -1,3 C 8,0 km/h (2 Bft) 100,00 %
21.01.2016 15:00 -1,4 C 85 % 1027,9 hPa 0,0 l/m 2,7 km/h (1 Bft) SW 231 0 min 0,051 mm 0,0 UV-I 115 W/m -3,6 C -1,4 C 6,4 km/h (2 Bft) 97,32 %
21.01.2016 15:05 -1,3 C 85 % 1027,8 hPa 0,0 l/m 3,8 km/h (1 Bft) W 260 0 min 0,000 mm 0,0 UV-I 116 W/m -3,5 C -1,3 C 6,4 km/h (2 Bft) 99,12 %
21.01.2016 15:10 -1,3 C 85 % 1027,9 hPa 0,0 l/m 2,4 km/h (1 Bft) W 260 0 min 0,000 mm 0,0 UV-I 103 W/m -3,5 C -1,3 C 6,4 km/h (2 Bft) 98,39 %
21.01.2016 15:15 -1,4 C 85 % 1028,0 hPa 0,0 l/m 2,9 km/h (1 Bft) W 263 0 min 0,000 mm 0,0 UV-I 86 W/m -3,6 C -1,4 C 6,4 km/h (2 Bft) 97,65 %
21.01.2016 15:25 -1,4 C 85 % 1028,0 hPa 0,0 l/m 1,3 km/h (1 Bft) W 262 10 min 0,000 mm 0,0 UV-I 99 W/m -3,6 C -1,4 C 1,6 km/h (1 Bft) 97,32 %
21.01.2016 15:30 -1,3 C 85 % 1028,0 hPa 0,0 l/m 1,7 km/h (1 Bft) W 262 5 min 0,000 mm 0,0 UV-I 99 W/m -3,5 C -1,3 C 3,2 km/h (1 Bft) 93,50 %
21.01.2016 15:35 -1,6 C 84 % 1028,1 hPa 0,0 l/m 1,3 km/h (1 Bft) W 262 0 min 0,000 mm 0,0 UV-I 83 W/m -3,9 C -1,6 C 3,2 km/h (1 Bft) 96,61 %
21.01.2016 15:40 -1,7 C 85 % 1028,1 hPa 0,0 l/m 0,4 km/h (0 Bft) W 262 0 min 0,000 mm 0,0 UV-I 76 W/m -3,9 C -1,7 C 1,6 km/h (1 Bft) 99,11 %
21.01.2016 15:46 -1,8 C 86 % 1028,2 hPa 0,0 l/m 0,6 km/h (0 Bft) W 262 6 min 0,000 mm 0,0 UV-I 71 W/m -3,8 C -1,8 C 1,6 km/h (1 Bft) 97,92 %
21.01.2016 15:50 -1,8 C 86 % 1028,2 hPa 0,0 l/m 0,9 km/h (0 Bft) W 262 4 min 0,000 mm 0,0 UV-I 68 W/m -3,8 C -1,8 C 1,6 km/h (1 Bft) 100,00 %
21.01.2016 15:55 -1,8 C 86 % 1028,2 hPa 0,0 l/m 0,6 km/h (0 Bft) W 262 5 min 0,000 mm 0,0 UV-I 62 W/m -3,8 C -1,8 C 3,2 km/h (1 Bft) 100,00 %
21.01.2016 16:00 -1,7 C 86 % 1028,3 hPa 0,0 l/m 1,1 km/h (1 Bft) W 262 0 min 0,025 mm 0,0 UV-I 53 W/m -3,7 C -1,7 C 3,2 km/h (1 Bft) 100,00 %
21.01.2016 16:05 -1,9 C 86 % 1028,3 hPa 0,0 l/m 0,0 km/h (0 Bft) W 262 0 min 0,000 mm 0,0 UV-I 44 W/m -3,9 C -1,9 C 1,6 km/h (1 Bft) 98,35 %
21.01.2016 16:10 -2,4 C 87 % 1028,3 hPa 0,0 l/m 0,0 km/h (0 Bft) W 262 0 min 0,000 mm 0,0 UV-I 34 W/m -4,3 C -2,4 C 1,6 km/h (1 Bft) 100,00 %
21.01.2016 16:15 -2,4 C 88 % 1028,2 hPa 0,0 l/m 0,0 km/h (0 Bft) W 262 0 min 0,000 mm 0,0 UV-I 27 W/m -4,1 C -2,4 C 0,0 km/h (0 Bft) 100,00 %
21.01.2016 16:20 -2,4 C 88 % 1028,3 hPa 0,0 l/m 0,0 km/h (0 Bft) W 262 0 min 0,000 mm 0,0 UV-I 23 W/m -4,1 C -2,4 C 0,0 km/h (0 Bft) 100,00 %
21.01.2016 16:25 -2,7 C 88 % 1028,4 hPa 0,0 l/m 0,0 km/h (0 Bft) W 262 5 min 0,000 mm 0,0 UV-I 20 W/m -4,4 C -2,7 C 0,0 km/h (0 Bft) 98,29 %
21.01.2016 16:30 -3,1 C 90 % 1028,4 hPa 0,0 l/m 0,8 km/h (0 Bft) W 262 5 min 0,000 mm 0,0 UV-I 17 W/m -4,5 C -3,1 C 3,2 km/h (1 Bft) 100,00 %
21.01.2016 16:35 -2,9 C 90 % 1028,4 hPa 0,0 l/m 1,0 km/h (0 Bft) W 262 0 min 0,000 mm 0,0 UV-I 13 W/m -4,3 C -2,9 C 3,2 km/h (1 Bft) 99,17 %
21.01.2016 16:40 -3,2 C 91 % 1028,5 hPa 0,0 l/m 2,2 km/h (1 Bft) W 262 0 min 0,000 mm 0,0 UV-I 10 W/m -4,5 C -3,2 C 3,2 km/h (1 Bft) 100,00 %
21.01.2016 16:45 -3,3 C 91 % 1028,6 hPa 0,0 l/m 2,4 km/h (1 Bft) W 262 0 min 0,000 mm 0,0 UV-I 7 W/m -4,6 C -3,3 C 3,2 km/h (1 Bft) 99,13 %
21.01.2016 16:50 -3,6 C 92 % 1028,6 hPa 0,0 l/m 1,8 km/h (1 Bft) W 262 0 min 0,000 mm 0,0 UV-I 5 W/m -4,7 C -3,6 C 3,2 km/h (1 Bft) 100,00 %
21.01.2016 16:55 -3,6 C 92 % 1028,5 hPa 0,0 l/m 0,6 km/h (0 Bft) W 262 0 min 0,000 mm 0,0 UV-I 2 W/m -4,7 C -3,6 C 3,2 km/h (1 Bft) 97,44 %
21.01.2016 17:00 -3,8 C 92 % 1028,6 hPa 0,0 l/m 0,6 km/h (0 Bft) W 262 0 min 0,000 mm 0,0 UV-I 0 W/m -4,9 C -3,8 C 1,6 km/h (1 Bft) 97,32 %
21.01.2016 17:05 -3,9 C 93 % 1028,7 hPa 0,0 l/m 0,1 km/h (0 Bft) W 262 0 min 0,000 mm 0,0 UV-I 0 W/m -4,9 C -3,9 C 1,6 km/h (1 Bft) 97,46 %
21.01.2016 17:10 -4,4 C 92 % 1028,7 hPa 0,0 l/m 1,3 km/h (1 Bft) W 262 0 min 0,000 mm 0,0 UV-I 0 W/m -5,5 C -4,4 C 4,8 km/h (1 Bft) 96,75 %
21.01.2016 17:15 -4,8 C 92 % 1028,7 hPa 0,0 l/m 3,7 km/h (1 Bft) S-SW 205 0 min 0,000 mm 0,0 UV-I 0 W/m -5,9 C -4,8 C 4,8 km/h (1 Bft) 98,31 %
21.01.2016 17:20 -4,7 C 94 % 1028,8 hPa 0,0 l/m 1,7 km/h (1 Bft) S-SW 205 0 min 0,000 mm 0,0 UV-I 0 W/m -5,5 C -4,7 C 4,8 km/h (1 Bft) 97,50 %
21.01.2016 17:25 -4,4 C 94 % 1028,8 hPa 0,0 l/m 1,9 km/h (1 Bft) S-SW 205 0 min 0,000 mm 0,0 UV-I 0 W/m -5,2 C -4,4 C 4,8 km/h (1 Bft) 97,39 %
21.01.2016 17:30 -4,3 C 94 % 1028,9 hPa 0,0 l/m 3,0 km/h (1 Bft) S-SW 205 0 min 0,000 mm 0,0 UV-I 0 W/m -5,1 C -4,3 C 4,8 km/h (1 Bft) 97,44 %
21.01.2016 17:35 -5,2 C 91 % 1029,0 hPa 0,0 l/m 0,9 km/h (0 Bft) S-SW 205 0 min 0,000 mm 0,0 UV-I 0 W/m -6,4 C -5,2 C 1,6 km/h (1 Bft) 100,00 %
21.01.2016 17:40 -5,3 C 95 % 1029,0 hPa 0,0 l/m 0,9 km/h (0 Bft) S-SW 205 0 min 0,000 mm 0,0 UV-I 0 W/m -6,0 C -5,3 C 3,2 km/h (1 Bft) 95,97 %
21.01.2016 17:45 -4,8 C 95 % 1029,1 hPa 0,0 l/m 0,4 km/h (0 Bft) S-SW 205 0 min 0,000 mm 0,0 UV-I 0 W/m -5,5 C -4,8 C 1,6 km/h (1 Bft) 100,00 %
21.01.2016 17:50 -4,8 C 95 % 1029,0 hPa 0,0 l/m 0,8 km/h (0 Bft) S-SW 205 0 min 0,000 mm 0,0 UV-I 0 W/m -5,5 C -4,8 C 3,2 km/h (1 Bft) 98,37 %
21.01.2016 17:55 -4,8 C 94 % 1029,1 hPa 0,0 l/m 1,6 km/h (1 Bft) S-SW 205 0 min 0,000 mm 0,0 UV-I 0 W/m -5,6 C -4,8 C 3,2 km/h (1 Bft) 100,00 %
21.01.2016 18:00 -5,6 C 93 % 1029,2 hPa 0,0 l/m 0,4 km/h (0 Bft) S-SW 205 0 min 0,000 mm 0,0 UV-I 0 W/m -6,5 C -5,6 C 3,2 km/h (1 Bft) 100,00 %
21.01.2016 18:05 -5,6 C 95 % 1029,2 hPa 0,0 l/m 0,7 km/h (0 Bft) S-SW 205 0 min 0,000 mm 0,0 UV-I 0 W/m -6,3 C -5,6 C 3,2 km/h (1 Bft) 99,08 %
21.01.2016 18:10 -5,4 C 95 % 1029,3 hPa 0,0 l/m 0,0 km/h (0 Bft) S-SW 205 0 min 0,000 mm 0,0 UV-I 0 W/m -6,1 C -5,4 C 0,0 km/h (0 Bft) 99,19 %
21.01.2016 18:15 -6,2 C 93 % 1029,3 hPa 0,0 l/m 2,1 km/h (1 Bft) S-SW 205 0 min 0,000 mm 0,0 UV-I 0 W/m -7,1 C -6,2 C 4,8 km/h (1 Bft) 99,10 %
21.01.2016 18:20 -5,9 C 95 % 1029,3 hPa 0,0 l/m 1,2 km/h (1 Bft) S-SW 205 0 min 0,000 mm 0,0 UV-I 0 W/m -6,6 C -5,9 C 3,2 km/h (1 Bft) 99,19 %
21.01.2016 18:25 -6,4 C 93 % 1029,3 hPa 0,0 l/m 1,7 km/h (1 Bft) S-SW 205 0 min 0,000 mm 0,0 UV-I 0 W/m -7,3 C -6,4 C 3,2 km/h (1 Bft) 99,08 %
21.01.2016 18:30 -6,4 C 95 % 1029,4 hPa 0,0 l/m 0,2 km/h (0 Bft) S-SW 205 0 min 0,000 mm 0,0 UV-I 0 W/m -7,1 C -6,4 C 1,6 km/h (1 Bft) 100,00 %
21.01.2016 18:35 -6,0 C 96 % 1029,5 hPa 0,0 l/m 0,7 km/h (0 Bft) S-SW 205 0 min 0,000 mm 0,0 UV-I 0 W/m -6,5 C -6,0 C 3,2 km/h (1 Bft) 98,37 %
21.01.2016 18:40 -6,6 C 94 % 1029,6 hPa 0,0 l/m 2,1 km/h (1 Bft) S-SW 205 0 min 0,000 mm 0,0 UV-I 0 W/m -7,4 C -6,6 C 3,2 km/h (1 Bft) 98,33 %
21.01.2016 18:45 -6,6 C 95 % 1029,4 hPa 0,0 l/m 0,1 km/h (0 Bft) S-SW 205 0 min 0,000 mm 0,0 UV-I 0 W/m -7,3 C -6,6 C 1,6 km/h (1 Bft) 99,11 %
21.01.2016 18:50 -6,6 C 94 % 1029,6 hPa 0,0 l/m 0,1 km/h (0 Bft) S-SW 205 0 min 0,000 mm 0,0 UV-I 0 W/m -7,4 C -6,6 C 1,6 km/h (1 Bft) 100,00 %
21.01.2016 18:55 -6,8 C 95 % 1029,5 hPa 0,0 l/m 0,4 km/h (0 Bft) S-SW 205 0 min 0,000 mm 0,0 UV-I 0 W/m -7,5 C -6,8 C 1,6 km/h (1 Bft) 100,00 %
21.01.2016 19:00 -6,9 C 95 % 1029,6 hPa 0,0 l/m 0,9 km/h (0 Bft) S-SW 205 0 min 0,000 mm 0,0 UV-I 0 W/m -7,6 C -6,9 C 3,2 km/h (1 Bft) 100,00 %
21.01.2016 19:05 -6,8 C 95 % 1029,7 hPa 0,0 l/m 1,5 km/h (1 Bft) S-SW 205 0 min 0,000 mm 0,0 UV-I 0 W/m -7,5 C -6,8 C 3,2 km/h (1 Bft) 97,56 %
21.01.2016 19:10 -6,7 C 95 % 1029,7 hPa 0,0 l/m 1,6 km/h (1 Bft) S-SW 205 0 min 0,000 mm 0,0 UV-I 0 W/m -7,4 C -6,7 C 3,2 km/h (1 Bft) 97,39 %
21.01.2016 19:15 -7,0 C 94 % 1029,8 hPa 0,0 l/m 1,8 km/h (1 Bft) S-SW 205 0 min 0,000 mm 0,0 UV-I 0 W/m -7,8 C -7,0 C 3,2 km/h (1 Bft) 94,35 %
21.01.2016 19:20 -7,1 C 95 % 1029,8 hPa 0,0 l/m 1,4 km/h (1 Bft) S-SW 205 0 min 0,000 mm 0,0 UV-I 0 W/m -7,8 C -7,1 C 3,2 km/h (1 Bft) 97,30 %
21.01.2016 19:25 -6,9 C 94 % 1029,9 hPa 0,0 l/m 0,8 km/h (0 Bft) S-SW 205 0 min 0,000 mm 0,0 UV-I 0 W/m -7,7 C -6,9 C 3,2 km/h (1 Bft) 97,39 %
21.01.2016 19:30 -7,3 C 94 % 1029,9 hPa 0,0 l/m 0,6 km/h (0 Bft) S-SW 205 0 min 0,000 mm 0,0 UV-I 0 W/m -8,1 C -7,3 C 3,2 km/h (1 Bft) 97,46 %
21.01.2016 19:35 -7,4 C 94 % 1029,9 hPa 0,0 l/m 1,4 km/h (1 Bft) S-SW 205 0 min 0,000 mm 0,0 UV-I 0 W/m -8,2 C -7,4 C 3,2 km/h (1 Bft) 95,93 %
21.01.2016 19:40 -7,4 C 94 % 1029,9 hPa 0,0 l/m 1,9 km/h (1 Bft) S-SW 205 0 min 0,000 mm 0,0 UV-I 0 W/m -8,2 C -7,4 C 4,8 km/h (1 Bft) 96,52 %
21.01.2016 19:45 -7,6 C 94 % 1029,9 hPa 0,0 l/m 1,3 km/h (1 Bft) S-SW 205 0 min 0,000 mm 0,0 UV-I 0 W/m -8,4 C -7,6 C 3,2 km/h (1 Bft) 96,67 %
21.01.2016 19:50 -7,3 C 95 % 1029,8 hPa 0,0 l/m 0,3 km/h (0 Bft) S-SW 205 0 min 0,000 mm 0,0 UV-I 0 W/m -8,0 C -7,3 C 1,6 km/h (1 Bft) 96,69 %
21.01.2016 19:55 -7,4 C 94 % 1029,9 hPa 0,0 l/m 0,1 km/h (0 Bft) S-SW 205 0 min 0,000 mm 0,0 UV-I 0 W/m -8,2 C -7,4 C 1,6 km/h (1 Bft) 97,25 %
21.01.2016 20:00 -7,8 C 93 % 1029,9 hPa 0,0 l/m 1,0 km/h (0 Bft) S-SW 205 0 min 0,000 mm 0,0 UV-I 0 W/m -8,7 C -7,8 C 3,2 km/h (1 Bft) 99,10 %
21.01.2016 20:05 -7,8 C 94 % 1030,0 hPa 0,0 l/m 1,7 km/h (1 Bft) S-SW 205 0 min 0,000 mm 0,0 UV-I 0 W/m -8,6 C -7,8 C 3,2 km/h (1 Bft) 98,43 %
21.01.2016 20:10 -7,8 C 94 % 1030,0 hPa 0,0 l/m 1,3 km/h (1 Bft) S-SW 205 0 min 0,000 mm 0,0 UV-I 0 W/m -8,6 C -7,8 C 3,2 km/h (1 Bft) 99,13 %
21.01.2016 20:15 -8,1 C 93 % 1030,1 hPa 0,0 l/m 0,4 km/h (0 Bft) S-SW 205 0 min 0,000 mm 0,0 UV-I 0 W/m -9,0 C -8,1 C 1,6 km/h (1 Bft) 100,00 %
21.01.2016 20:20 -8,2 C 94 % 1030,2 hPa 0,0 l/m 0,0 km/h (0 Bft) S-SW 205 0 min 0,000 mm 0,0 UV-I 0 W/m -9,0 C -8,2 C 1,6 km/h (1 Bft) 99,15 %
21.01.2016 20:25 -8,2 C 94 % 1030,3 hPa 0,0 l/m 1,9 km/h (1 Bft) S-SW 205 0 min 0,000 mm 0,0 UV-I 0 W/m -9,0 C -8,2 C 3,2 km/h (1 Bft) 98,15 %
21.01.2016 20:30 -8,3 C 93 % 1030,3 hPa 0,0 l/m 2,5 km/h (1 Bft) S-SW 205 0 min 0,000 mm 0,0 UV-I 0 W/m -9,2 C -8,3 C 3,2 km/h (1 Bft) 98,31 %
21.01.2016 20:35 -8,2 C 94 % 1030,3 hPa 0,0 l/m 0,6 km/h (0 Bft) S-SW 205 0 min 0,000 mm 0,0 UV-I 0 W/m -9,0 C -8,2 C 1,6 km/h (1 Bft) 98,39 %
21.01.2016 20:40 -7,7 C 95 % 1030,4 hPa 0,0 l/m 0,3 km/h (0 Bft) S-SW 205 0 min 0,000 mm 0,0 UV-I 0 W/m -8,4 C -7,7 C 1,6 km/h (1 Bft) 99,12 %
21.01.2016 20:45 -7,4 C 95 % 1030,5 hPa 0,0 l/m 1,0 km/h (0 Bft) S-SW 205 0 min 0,000 mm 0,0 UV-I 0 W/m -8,1 C -7,4 C 1,6 km/h (1 Bft) 99,15 %
21.01.2016 20:50 -7,4 C 94 % 1030,5 hPa 0,0 l/m 0,1 km/h (0 Bft) S-SW 205 0 min 0,000 mm 0,0 UV-I 0 W/m -8,2 C -7,4 C 1,6 km/h (1 Bft) 97,50 %
21.01.2016 20:55 -7,7 C 94 % 1030,5 hPa 0,0 l/m 1,9 km/h (1 Bft) S-SW 205 0 min 0,000 mm 0,0 UV-I 0 W/m -8,5 C -7,7 C 3,2 km/h (1 Bft) 100,00 %
21.01.2016 21:00 -7,7 C 94 % 1030,5 hPa 0,0 l/m 2,6 km/h (1 Bft) S-SW 205 0 min 0,000 mm 0,0 UV-I 0 W/m -8,5 C -7,7 C 3,2 km/h (1 Bft) 99,13 %
21.01.2016 21:05 -7,6 C 94 % 1030,6 hPa 0,0 l/m 3,0 km/h (1 Bft) S-SW 205 0 min 0,000 mm 0,0 UV-I 0 W/m -8,4 C -7,6 C 4,8 km/h (1 Bft) 99,19 %
21.01.2016 21:10 -7,8 C 94 % 1030,7 hPa 0,0 l/m 4,9 km/h (1 Bft) NO 50 0 min 0,000 mm 0,0 UV-I 0 W/m -8,6 C -7,8 C 6,4 km/h (2 Bft) 99,17 %
21.01.2016 21:15 -7,4 C 95 % 1030,6 hPa 0,0 l/m 5,1 km/h (1 Bft) NO 49 0 min 0,000 mm 0,0 UV-I 0 W/m -8,1 C -7,4 C 6,4 km/h (2 Bft) 97,17 %
21.01.2016 21:20 -7,1 C 95 % 1030,6 hPa 0,0 l/m 4,9 km/h (1 Bft) NO 45 0 min 0,000 mm 0,0 UV-I 0 W/m -7,8 C -7,1 C 6,4 km/h (2 Bft) 100,00 %
21.01.2016 21:25 -7,8 C 92 % 1030,7 hPa 0,0 l/m 2,2 km/h (1 Bft) NO 45 0 min 0,000 mm 0,0 UV-I 0 W/m -8,9 C -7,8 C 4,8 km/h (1 Bft) 97,25 %
21.01.2016 21:30 -8,6 C 93 % 1030,9 hPa 0,0 l/m 3,8 km/h (1 Bft) NO 39 0 min 0,000 mm 0,0 UV-I 0 W/m -9,5 C -8,6 C 6,4 km/h (2 Bft) 99,15 %
21.01.2016 21:35 -8,0 C 95 % 1030,8 hPa 0,0 l/m 4,9 km/h (1 Bft) NO 39 0 min 0,000 mm 0,0 UV-I 0 W/m -8,7 C -8,0 C 6,4 km/h (2 Bft) 100,00 %
21.01.2016 21:40 -7,8 C 95 % 1030,9 hPa 0,0 l/m 2,9 km/h (1 Bft) NO 40 0 min 0,000 mm 0,0 UV-I 0 W/m -8,5 C -7,8 C 4,8 km/h (1 Bft) 100,00 %
21.01.2016 21:45 -8,8 C 91 % 1031,0 hPa 0,0 l/m 0,4 km/h (0 Bft) NO 40 0 min 0,000 mm 0,0 UV-I 0 W/m -10,0 C -8,8 C 3,2 km/h (1 Bft) 100,00 %
21.01.2016 21:50 -9,6 C 91 % 1031,0 hPa 0,0 l/m 0,8 km/h (0 Bft) NO 40 0 min 0,000 mm 0,0 UV-I 0 W/m -10,8 C -9,6 C 3,2 km/h (1 Bft) 97,32 %
21.01.2016 21:55 -9,8 C 92 % 1031,0 hPa 0,0 l/m 0,0 km/h (0 Bft) NO 40 0 min 0,000 mm 0,0 UV-I 0 W/m -10,8 C -9,8 C 0,0 km/h (0 Bft) 96,77 %
21.01.2016 22:00 -9,4 C 94 % 1031,0 hPa 0,0 l/m 2,0 km/h (1 Bft) NO 40 0 min 0,000 mm 0,0 UV-I 0 W/m -10,2 C -9,4 C 3,2 km/h (1 Bft) 97,22 %
21.01.2016 22:05 -8,7 C 95 % 1031,1 hPa 0,0 l/m 1,7 km/h (1 Bft) O-NO 68 0 min 0,000 mm 0,0 UV-I 0 W/m -9,4 C -8,7 C 3,2 km/h (1 Bft) 97,58 %
21.01.2016 22:10 -9,1 C 93 % 1031,2 hPa 0,0 l/m 0,3 km/h (0 Bft) O-NO 71 0 min 0,000 mm 0,0 UV-I 0 W/m -10,0 C -9,1 C 1,6 km/h (1 Bft) 96,67 %
21.01.2016 22:15 -9,2 C 93 % 1031,2 hPa 0,0 l/m 3,0 km/h (1 Bft) O-NO 69 0 min 0,000 mm 0,0 UV-I 0 W/m -10,1 C -9,2 C 6,4 km/h (2 Bft) 97,25 %
21.01.2016 22:20 -8,6 C 95 % 1031,2 hPa 0,0 l/m 3,3 km/h (1 Bft) O-NO 67 0 min 0,000 mm 0,0 UV-I 0 W/m -9,3 C -8,6 C 6,4 km/h (2 Bft) 96,61 %
21.01.2016 22:25 -8,7 C 93 % 1031,2 hPa 0,0 l/m 0,3 km/h (0 Bft) O-NO 67 0 min 0,000 mm 0,0 UV-I 0 W/m -9,6 C -8,7 C 3,2 km/h (1 Bft) 96,75 %
21.01.2016 22:30 -9,1 C 92 % 1031,2 hPa 0,0 l/m 0,8 km/h (0 Bft) O-NO 67 0 min 0,000 mm 0,0 UV-I 0 W/m -10,2 C -9,1 C 4,8 km/h (1 Bft) 96,43 %
21.01.2016 22:35 -9,2 C 93 % 1031,2 hPa 0,0 l/m 1,0 km/h (0 Bft) O-NO 61 0 min 0,000 mm 0,0 UV-I 0 W/m -10,1 C -9,2 C 4,8 km/h (1 Bft) 97,58 %
21.01.2016 22:40 -8,5 C 95 % 1031,2 hPa 0,0 l/m 1,9 km/h (1 Bft) O 84 0 min 0,000 mm 0,0 UV-I 0 W/m -9,2 C -8,5 C 6,4 km/h (2 Bft) 98,25 %
21.01.2016 22:45 -8,0 C 95 % 1031,2 hPa 0,0 l/m 5,3 km/h (1 Bft) O-NO 57 0 min 0,000 mm 0,0 UV-I 0 W/m -8,7 C -8,0 C 12,9 km/h (3 Bft) 99,11 %
21.01.2016 22:50 -7,7 C 95 % 1031,2 hPa 0,0 l/m 5,8 km/h (2 Bft) NO 55 0 min 0,000 mm 0,0 UV-I 0 W/m -8,4 C -7,7 C 9,7 km/h (2 Bft) 99,19 %
21.01.2016 22:55 -7,7 C 94 % 1031,3 hPa 0,0 l/m 3,4 km/h (1 Bft) O-NO 68 0 min 0,000 mm 0,0 UV-I 0 W/m -8,5 C -7,7 C 6,4 km/h (2 Bft) 97,52 %
21.01.2016 23:00 -7,9 C 93 % 1031,4 hPa 0,0 l/m 1,8 km/h (1 Bft) O-NO 66 0 min 0,000 mm 0,0 UV-I 0 W/m -8,8 C -7,9 C 4,8 km/h (1 Bft) 98,21 %
21.01.2016 23:05 -8,0 C 93 % 1031,4 hPa 0,0 l/m 7,4 km/h (2 Bft) O-NO 70 0 min 0,000 mm 0,0 UV-I 0 W/m -8,9 C -9,3 C 14,5 km/h (3 Bft) 99,17 %
21.01.2016 23:10 -8,1 C 93 % 1031,5 hPa 0,0 l/m 6,7 km/h (2 Bft) O 91 0 min 0,000 mm 0,0 UV-I 0 W/m -9,0 C -8,5 C 11,3 km/h (2 Bft) 98,26 %
21.01.2016 23:15 -8,1 C 93 % 1031,4 hPa 0,0 l/m 5,4 km/h (1 Bft) NO 47 0 min 0,000 mm 0,0 UV-I 0 W/m -9,0 C -8,1 C 9,7 km/h (2 Bft) 99,11 %
21.01.2016 23:20 -8,0 C 94 % 1031,4 hPa 0,0 l/m 4,4 km/h (1 Bft) O-NO 61 0 min 0,000 mm 0,0 UV-I 0 W/m -8,8 C -8,0 C 9,7 km/h (2 Bft) 99,21 %
21.01.2016 23:25 -7,9 C 94 % 1031,4 hPa 0,0 l/m 3,0 km/h (1 Bft) N-NO 33 0 min 0,000 mm 0,0 UV-I 0 W/m -8,7 C -7,9 C 4,8 km/h (1 Bft) 99,15 %
21.01.2016 23:30 -8,1 C 93 % 1031,5 hPa 0,0 l/m 3,7 km/h (1 Bft) NO 54 0 min 0,000 mm 0,0 UV-I 0 W/m -9,0 C -8,1 C 6,4 km/h (2 Bft) 99,12 %
21.01.2016 23:35 -7,9 C 94 % 1031,5 hPa 0,0 l/m 3,8 km/h (1 Bft) NO 51 0 min 0,000 mm 0,0 UV-I 0 W/m -8,7 C -7,9 C 6,4 km/h (2 Bft) 99,11 %
21.01.2016 23:40 -7,8 C 94 % 1031,5 hPa 0,0 l/m 3,3 km/h (1 Bft) NO 44 0 min 0,000 mm 0,0 UV-I 0 W/m -8,6 C -7,8 C 6,4 km/h (2 Bft) 100,00 %
21.01.2016 23:45 -7,7 C 94 % 1031,5 hPa 0,0 l/m 5,1 km/h (1 Bft) NO 45 0 min 0,000 mm 0,0 UV-I 0 W/m -8,5 C -7,7 C 8,0 km/h (2 Bft) 99,15 %
21.01.2016 23:50 -7,7 C 94 % 1031,5 hPa 0,0 l/m 6,2 km/h (2 Bft) NO 34 0 min 0,000 mm 0,0 UV-I 0 W/m -8,5 C -7,7 C 9,7 km/h (2 Bft) 98,35 %
21.01.2016 23:55 -7,7 C 94 % 1031,6 hPa 0,0 l/m 4,3 km/h (1 Bft) O-NO 59 0 min 0,000 mm 0,0 UV-I 0 W/m -8,5 C -7,7 C 6,4 km/h (2 Bft) 100,00 %
_ Min-Zeit 21:55 03:20 00:05 - 08:20 - - - - - - 21:55 00:25 16:15 15:30
Minimum _ -9,8 C 83 % 1020,0 hPa - 0,0 km/h (0 Bft) - - - - - - -10,8 C -11,6 C 0,0 km/h (0 Bft) 93,50 %
_ Max-Zeit 12:00 18:35 23:55 12:05 00:25 - - 15:25 12:00 11:55 12:00 11:15 12:00 00:25 00:45
Maximum _ -1,1 C 96 % 1031,6 hPa 0,2 l/m 18,7 km/h
SW (3 Bft)
- - 10 min 0,051 mm 0,7 UV-I 240 W/m -2,7 C -1,1 C 30,6 km/h
SW (5 Bft)
100,00 %
Durchschnitt _ -3,5 C 91 % 1026,2 hPa #0,6 l/m 4,3 km/h (1 Bft) W - #1:35 h #0,279 mm 0,6 UV-I 96 W/m -4,8 C -4,4 C 8,4 km/h (2 Bft) 98,53 %